Tracking 19846 objects as of 19-Sep-2019
HD Live streaming from Space Station
objects crossing your sky now

RFTSAT

Track RFTSAT now!
10-day predictions


NORAD ID: 44417
Int'l Code: 2019-022G
Perigee: 475.8 km
Apogee: 492.7 km
Inclination: 51.6 °
Period: 94.1 minutes
Semi major axis: 6855 km
RCS: Unknown
Launch date: April 17, 2019
Source: United States (US)
Launch site: WALLOPS ISLAND (WLPIS)
aabbcc
Your satellite tracking list
Your tracking list is empty




NASA's NSSDC Master Catalog

Two Line Element Set (TLE):
1 44417U 19022G   19261.54027857 +.00001024 +00000-0 +47685-4 0  9992
2 44417 051.6430 264.8857 0012386 059.8747 300.3459 15.29563214006492
Source of the keplerian elements: AFSPC